CAPE
7 5 9 18 24 19 18 19 8 7 27 12 1 0 0 0 0 0 0 0 0 0 0 0 0 0 0 0 0 0 0 0 0 0 0 0 2 1
7 11 7 5 11 21 25 19 28 24 16 0 12 5 4 0 0 0 0 0 0 0 0 0 0 0 0 0 0 0 0 0 0 0 0 0 0 0
7 0 4 2 6 9 19 22 25 25 22 6 13 0 0 0 1 0 0 1 28 6 0 0 0 0 0 0 0 0 1 1 0 0 0 0 0 0
0 3 5 10 5 8 18 13 11 7 22 11 17 8 4 7 20 5 41 11 16 45 0 0 0 0 0 0 1 1 1 1 1 1 1 0 1 0
0 5 7 7 7 14 26 5 6 6 27 20 4 1 18 15 11 0 0 4 6 38 3 0 0 0 0 1 1 1 1 1 1 1 1 1 1 1
11 4 3 6 9 5 3 6 20 24 25 16 9 5 8 0 18 62 38 0 14 19 4 1 0 0 0 1 1 0 2 0 1 1 1 1 1 1
11 8 6 14 13 1 19 17 10 25 20 18 9 9 23 6 12 3 3 0 0 0 0 0 0 0 0 0 1 2 2 2 1 1 1 1 1 1
9 12 15 14 10 6 0 0 0 13 17 30 17 11 21 13 13 9 7 3 1 0 1 0 0 0 0 0 0 1 1 1 1 1 1 1 0 1
11 10 12 15 11 17 2 0 0 2 1 1 17 15 10 10 10 3 6 7 0 0 1 1 1 0 0 0 1 1 1 1 1 1 0 1 1 1
12 13 12 10 15 8 15 19 14 17 15 4 13 9 3 3 7 12 3 1 0 0 1 0 1 1 1 1 0 1 1 1 0 1 1 1 1 1
11 10 12 10 4 6 9 17 14 12 1 1 1 0 0 0 0 2 0 1 0 0 0 1 0 1 1 1 0 1 1 1 1 1 1 1 1 1
6 6 2 1 2 3 10 10 5 2 0 0 0 0 0 0 0 2 4 2 1 2 0 1 1 0 1 0 0 0 1 1 1 1 1 1 1 0
3 3 2 1 2 4 3 2 2 0 0 0 0 0 0 1 2 3 3 4 0 1 0 0 1 1 1 0 1 1 1 0 0 0 0 0 0 0
4 1 1 6 5 1 0 0 0 0 0 0 0 0 0 0 0 0 0 0 1 1 0 0 1 0 9 2 11 0 0 0 1 1 1 0 0 0
0 0 0 0 1 1 1 0 0 0 0 0 0 0 0 0 0 0 0 0 1 0 0 0 0 1 1 1 0 0 0 0 1 1 1 1 0 1
0 0 0 0 0 2 0 1 1 4 1 0 0 0 0 0 0 1 1 0 1 0 0 0 0 0 1 0 1 1 0 0 0 1 1 1 1 0
0 0 0 2 2 2 2 0 1 2 1 1 2 1 0 0 0 0 1 1 1 0 0 0 0 0 0 0 0 1 0 1 0 0 0 0 0 1
0 2 2 2 3 2 3 2 2 1 2 1 1 1 0 0 0 0 0 0 0 0 0 0 0 0 0 0 0 0 0 0 0 1 1 0 0 0
2 2 3 1 2 3 2 2 2 2 3 1 0 0 0 0 0 0 0 0 0 0 0 0 0 0 0 0 0 0 0 0 0 0 0 0 0 0
5 6 4 2 4 3 1 2 2 3 1 0 0 0 0 0 0 0 0 0 0 0 0 0 0 0 0 0 0 0 0 0 0 0 0 0 0 0
8 3 4 2 4 5 2 1 1 1 3 1 0 0 0 0 0 0 0 0 0 0 0 0 0 0 0 0 0 0 0 0 0 0 0 0 0 0
4 7 7 4 3 4 2 1 1 0 1 2 1 0 0 0 0 0 0 0 0 0 0 0 0 0 0 2 1 0 0 0 0 0 0 0 0 0
5 3 4 2 4 3 2 3 1 1 0 1 2 0 0 0 0 0 0 0 0 0 0 1 0 0 0 0 0 0 0 0 0 0 0 0 0 0
CIN
-2 -2 0 0 0 0 0 0 0 0 0 -2 -1 0 0 0 0 0 0 0 0 0 0 0 0 0 0 0 0 0 0 0 0 0 0 0 -1 -1
-1 -1 -1 0 0 0 0 0 0 0 0 0 0 0 -1 0 0 0 0 0 0 0 0 0 0 0 0 0 0 0 0 0 0 0 0 0 -1 -2
-3 0 -1 -1 0 0 0 -1 0 0 0 -2 -2 0 0 0 -45 0 0 -72 -138 -63 0 0 0 0 0 0 0 0 0 0 0 0 0 0 0 0
0 -2 -1 0 -1 -1 0 0 0 -1 0 0 0 -1 -2 -3 -23 -83 -68 -42 -85 -98 0 0 0 0 0 0 0 0 0 0 0 0 0 0 0 0
-1 -1 -1 -1 0 0 0 0 0 0 0 0 -1 -1 -1 -1 -1 -6 0 -109 -187 -104 -36 0 0 0 0 0 0 0 0 0 0 0 0 0 0 0
-2 -1 -1 0 0 -1 0 0 0 0 0 0 -1 -1 -2 0 -3 -1 -11 0 -99 -131 -85 -219 0 0 0 0 0 0 0 0 0 0 0 0 0 0
0 -1 -1 -1 -3 -6 0 0 0 0 0 0 0 -1 -1 -2 0 -1 0 0 0 0 0 0 0 0 0 0 0 0 0 0 0 0 0 0 0 0
0 0 0 -1 -2 -6 0 0 -1 0 0 0 0 0 0 0 0 0 0 0 0 0 0 0 0 0 0 0 0 0 0 0 0 0 0 0 0 0
0 0 0 0 -2 0 -1 -2 0 -1 -2 -2 0 0 0 0 0 0 0 0 0 0 -2 -2 0 0 0 0 0 0 0 0 0 0 0 0 0 0
0 0 0 0 0 -2 -1 0 -1 -1 -3 0 -1 0 -1 0 0 0 0 0 0 0 0 -1 0 0 0 0 0 0 0 0 0 0 0 0 0 0
0 0 0 0 0 -1 0 0 0 -1 -4 -5 -5 0 0 0 0 0 0 0 0 0 0 0 0 0 0 0 0 0 0 0 0 0 0 0 0 0
0 0 0 0 0 0 0 0 0 -1 0 0 0 -1 0 0 0 0 0 0 0 0 0 0 0 0 -1 0 0 0 0 0 0 0 0 0 0 0
-1 0 0 0 0 0 0 0 0 0 0 0 0 0 0 0 0 0 0 0 0 0 0 0 0 0 0 0 0 0 0 0 0 0 0 0 0 0
0 -1 -1 -1 0 0 0 0 0 0 0 0 0 0 0 0 0 0 0 0 0 0 0 0 0 -1 -14 -4 -3 0 0 0 0 0 0 0 0 0
0 -4 -2 -1 -1 -2 0 0 0 0 0 0 0 0 0 0 0 0 0 0 0 0 0 0 0 0 0 0 0 0 0 0 0 0 0 0 0 0
0 -2 -2 -1 -1 -1 0 0 0 0 0 0 0 0 0 0 0 0 0 0 0 0 0 0 0 0 0 0 0 0 0 0 0 0 0 0 0 0
0 0 -2 -2 -1 -1 -2 0 -1 0 0 0 0 0 0 0 0 0 0 0 0 0 0 0 0 0 0 0 0 0 0 0 0 0 0 0 0 0
-1 -1 -1 -1 0 0 0 -1 -1 0 0 0 0 0 0 0 0 0 0 0 0 0 0 0 0 0 0 0 0 0 0 0 0 0 0 0 0 0
0 -1 0 -1 -1 0 0 0 0 0 0 0 0 0 0 0 0 0 0 0 0 0 0 0 0 0 0 0 0 0 0 0 0 0 0 0 0 0
0 0 0 0 0 0 0 0 0 0 0 0 0 0 0 0 0 0 0 0 0 0 0 0 0 0 0 0 0 0 0 0 0 0 0 0 0 0
0 -1 -1 -1 0 0 0 -1 -1 0 0 0 0 0 0 0 0 0 0 0 0 0 0 0 0 0 0 0 0 0 0 0 0 0 0 0 0 0
0 0 0 0 0 0 0 -1 0 0 0 0 0 0 0 0 0 0 0 0 0 0 0 0 0 0 0 0 0 0 0 0 0 0 0 0 0 0
0 0 0 0 0 0 0 0 0 0 0 0 0 0 0 0 0 0 0 0 0 0 0 0 0 0 0 0 0 0 0 0 0 0 0 0 0 0
Wind_Speed
10 12 11 10 10 9 9 10 9 11 15 14 12 12 10 11 14 15 16 19 20 22 23 23 22 21 20 19 20 20 19 19 18 19 19 20 21 21
11 13 13 12 13 11 11 11 10 10 12 9 12 15 15 11 11 14 16 16 18 19 21 24 23 22 21 21 20 19 18 17 17 18 19 20 21 21
14 16 17 17 13 11 11 9 11 11 10 8 10 13 16 15 15 14 11 12 11 18 21 23 24 25 23 20 19 18 16 16 17 17 19 21 22 22
17 17 17 14 17 15 12 12 14 13 10 13 10 10 11 12 14 9 9 11 11 13 19 23 26 25 21 21 19 18 17 15 15 17 18 20 21 21
18 15 16 16 16 14 13 13 13 13 10 10 10 9 11 10 13 13 15 17 12 19 21 24 27 23 20 22 23 21 19 17 16 16 17 17 16 16
15 17 17 15 16 18 16 16 12 12 12 10 11 10 9 11 13 13 14 11 16 11 15 21 18 24 20 20 19 18 17 16 16 16 15 16 16 17
16 16 14 16 23 19 11 14 16 11 10 10 10 10 8 9 9 9 9 6 4 4 6 6 8 12 7 16 11 16 17 18 16 15 15 14 16 16
17 16 15 18 17 17 16 21 14 14 13 10 9 10 11 10 6 9 10 7 6 1 0 6 1 4 3 1 10 14 14 13 15 15 13 12 13 15
17 17 16 12 15 14 18 18 16 15 11 11 15 13 12 11 11 12 11 10 7 10 6 9 3 5 3 5 7 10 15 12 7 14 12 12 16 16
17 17 18 18 16 16 16 16 15 13 13 13 14 14 13 14 13 12 12 12 10 5 6 10 2 4 3 2 6 9 7 8 11 12 12 14 12 13
16 17 17 18 23 24 17 17 17 15 13 19 20 21 23 23 19 9 10 7 6 4 3 2 3 3 5 3 4 11 5 4 6 9 11 11 11 11
16 16 19 18 24 24 15 16 17 16 15 18 16 17 17 18 20 11 9 8 4 5 3 3 2 2 5 4 2 5 6 9 5 3 8 8 4 2
13 13 12 24 26 26 25 16 17 17 18 14 12 11 12 12 11 9 7 7 7 5 4 3 2 3 2 2 3 3 3 2 3 3 4 6 7 5
13 12 14 27 26 25 20 21 25 18 10 10 10 10 9 9 10 9 8 7 4 6 5 4 1 4 2 2 1 4 3 1 2 2 2 2 4 9
13 17 25 27 25 17 23 24 17 9 9 10 10 10 9 9 9 7 5 4 5 4 2 2 2 3 3 1 3 3 1 4 3 1 2 3 2 0
17 13 15 17 16 14 14 14 11 11 11 10 11 10 8 7 6 2 2 2 2 3 3 5 4 5 3 2 3 2 2 2 1 3 2 0 2 3
14 12 13 14 15 15 14 15 12 12 12 12 12 11 7 4 3 3 1 1 2 3 3 2 5 4 3 1 2 1 0 0 2 3 1 2 2 1
11 12 13 14 14 14 14 14 12 14 12 12 10 10 9 8 6 3 2 1 2 3 2 2 3 1 1 2 7 1 1 1 1 0 2 2 3 3
13 12 13 13 14 14 13 13 13 12 14 11 11 10 9 8 8 5 4 1 1 1 2 2 1 1 2 1 1 11 2 2 2 2 2 2 1 2
11 12 13 13 13 13 14 13 13 13 13 12 11 10 10 9 8 7 6 4 3 3 3 3 3 3 2 2 2 3 12 2 2 2 2 1 3 9
12 10 12 12 13 13 13 13 15 14 14 12 11 10 10 9 9 8 7 8 7 4 5 5 5 5 2 2 3 3 4 12 5 1 2 3 2 2
11 11 12 11 12 13 13 13 13 14 14 13 12 11 10 9 8 8 8 6 6 5 3 4 5 4 3 3 4 2 2 3 8 15 12 3 3 3
10 11 10 11 12 12 12 13 13 13 13 13 13 12 11 10 9 8 7 6 6 6 5 5 5 5 6 6 6 5 7 6 4 7 8 11 12 17
Wind_Direction
323 324 317 307 313 321 310 293 296 319 308 278 263 253 243 237 239 238 241 244 234 233 230 229 228 223 219 219 222 225 226 227 229 233 232 230 233 230
329 319 322 320 319 315 305 319 305 285 284 312 325 327 321 285 250 241 245 240 241 239 237 233 227 221 216 215 218 218 219 223 229 234 234 230 234 230
325 328 321 317 310 312 305 299 300 315 292 286 270 293 277 275 281 294 273 251 248 238 239 237 232 220 213 212 223 218 211 218 226 235 239 235 227 223
325 322 315 313 310 306 297 311 307 301 288 304 313 294 290 272 262 254 270 286 265 250 240 243 239 233 209 216 222 223 218 214 218 227 234 233 228 219
319 311 309 311 309 307 309 310 300 306 305 309 304 301 288 273 268 259 258 252 257 262 256 241 235 219 208 207 215 216 217 216 222 230 233 233 235 217
313 312 309 305 313 310 304 301 305 306 313 305 307 312 318 329 311 262 247 247 246 252 263 257 236 223 214 208 214 209 225 227 231 233 235 241 235 230
312 311 307 304 299 292 312 321 317 304 300 302 307 313 315 317 329 311 305 294 279 237 289 256 245 228 160 174 202 219 225 231 230 232 229 233 238 237
317 314 311 305 301 301 315 318 300 310 311 299 293 295 305 314 318 316 313 334 319 275 6 283 66 202 167 136 225 216 214 217 219 235 230 233 239 237
315 313 310 303 305 304 306 301 299 293 288 300 298 299 305 312 318 308 312 306 305 285 283 276 258 248 136 178 214 227 232 240 226 238 235 229 223 219
314 311 310 307 304 302 302 300 299 295 299 293 289 296 292 296 289 289 290 291 283 285 327 249 277 270 71 161 190 241 248 235 234 234 221 207 207 210
318 314 310 306 303 300 300 301 299 293 287 278 272 277 281 280 273 284 274 286 286 282 318 107 316 319 342 49 359 40 354 250 234 243 235 223 190 183
323 321 316 308 305 302 296 301 298 296 298 300 295 288 286 285 281 258 266 267 272 299 247 335 357 291 42 332 349 63 31 26 338 267 266 267 214 160
326 329 328 324 316 309 302 296 290 295 294 288 285 285 293 286 281 276 256 250 255 260 278 118 128 335 66 318 354 40 81 14 350 342 284 253 202 210
332 327 324 328 329 320 310 299 294 294 288 286 286 282 277 281 282 276 268 254 258 265 324 332 239 139 123 64 318 5 336 160 142 243 257 330 215 226
336 335 340 343 337 337 333 322 313 302 295 291 284 279 275 270 278 280 294 302 303 287 298 99 99 50 19 128 182 169 54 319 40 307 266 188 165 280
340 340 342 342 347 343 346 343 340 335 320 300 292 288 285 282 280 240 358 0 326 296 4 11 63 121 157 182 158 153 160 257 330 272 277 283 134 214
339 348 352 354 353 350 351 349 345 343 343 339 336 340 322 300 313 5 25 310 254 324 4 22 43 38 44 71 33 70 131 228 289 295 19 310 302 149
356 359 354 352 351 347 345 342 346 345 341 339 340 344 346 351 352 349 346 0 349 342 337 5 0 8 123 79 43 117 136 190 216 339 2 17 351 338
6 358 354 350 346 345 345 342 341 342 339 341 341 343 340 338 341 339 335 313 328 359 358 1 354 34 4 354 24 48 20 8 20 50 45 30 339 331
8 356 352 348 347 344 342 342 342 342 348 345 345 344 344 342 341 343 344 340 340 354 12 7 19 19 360 18 65 349 10 335 37 62 55 52 76 64
348 354 354 348 347 345 343 342 345 344 344 346 348 347 346 348 353 356 358 5 2 2 24 16 350 357 50 61 56 9 358 21 48 107 121 77 58 41
347 348 347 345 349 347 345 345 345 348 347 348 348 349 350 352 358 358 4 5 11 12 19 4 4 12 27 64 73 50 18 22 43 55 39 70 156 154
342 343 343 345 344 343 344 346 348 346 348 348 347 349 350 355 359 360 2 5 14 14 19 32 36 41 52 59 58 49 51 36 22 37 27 33 84 97